Year,Month,Day,Hour,Minute,Value (Times are PST for temperature in C)
2017,07,11,00,01,13.20
2017,07,11,00,02,13.20
2017,07,11,00,03,13.20
2017,07,11,00,04,13.20
2017,07,11,00,06,13.20
2017,07,11,00,07,13.20
2017,07,11,00,09,13.20
2017,07,11,00,11,13.10
2017,07,11,00,12,13.10
2017,07,11,00,13,13.10
2017,07,11,00,14,13.10
2017,07,11,00,16,13.10
2017,07,11,00,17,13.10
2017,07,11,00,18,13.10
2017,07,11,00,19,13.10
2017,07,11,00,21,13.10
2017,07,11,00,22,13.00
2017,07,11,00,23,13.00
2017,07,11,00,24,13.00
2017,07,11,00,26,13.00
2017,07,11,00,27,13.00
2017,07,11,00,28,13.00
2017,07,11,00,29,13.00
2017,07,11,00,31,13.00
2017,07,11,00,32,12.90
2017,07,11,00,33,12.90
2017,07,11,00,34,12.90
2017,07,11,00,36,12.90
2017,07,11,00,37,12.90
2017,07,11,00,38,12.90
2017,07,11,00,39,12.90
2017,07,11,00,41,12.90
2017,07,11,00,42,12.90
2017,07,11,00,43,12.80
2017,07,11,00,44,12.80
2017,07,11,00,46,12.80
2017,07,11,00,47,12.80
2017,07,11,00,48,12.80
2017,07,11,00,49,12.80
2017,07,11,00,51,12.80
2017,07,11,00,52,12.80
2017,07,11,00,53,12.80
2017,07,11,00,54,12.80
2017,07,11,00,56,12.80
2017,07,11,00,57,12.80
2017,07,11,00,58,12.80
2017,07,11,00,59,12.80
2017,07,11,01,00,12.80
2017,07,11,01,01,12.80
2017,07,11,01,02,12.80
2017,07,11,01,03,12.80
2017,07,11,01,04,12.80
2017,07,11,01,06,12.80
2017,07,11,01,07,12.80
2017,07,11,01,08,12.80
2017,07,11,01,09,12.70
2017,07,11,01,10,12.70
2017,07,11,01,11,12.70
2017,07,11,01,12,12.70
2017,07,11,01,13,12.70
2017,07,11,01,14,12.70
2017,07,11,01,15,12.70
2017,07,11,01,16,12.70
2017,07,11,01,17,12.70
2017,07,11,01,18,12.70
2017,07,11,01,19,12.70
2017,07,11,01,20,12.70
2017,07,11,01,21,12.70
2017,07,11,01,22,12.70
2017,07,11,01,23,12.70
2017,07,11,01,24,12.60
2017,07,11,01,25,12.60
2017,07,11,01,26,12.60
2017,07,11,01,27,12.60
2017,07,11,01,28,12.60
2017,07,11,01,29,12.60
2017,07,11,01,30,12.60
2017,07,11,01,31,12.60
2017,07,11,01,32,12.60
2017,07,11,01,33,12.60
2017,07,11,01,34,12.60
2017,07,11,01,35,12.60
2017,07,11,01,36,12.60
2017,07,11,01,37,12.60
2017,07,11,01,38,12.60
2017,07,11,01,39,12.60
2017,07,11,01,40,12.50
2017,07,11,01,41,12.50
2017,07,11,01,42,12.50
2017,07,11,01,43,12.50
2017,07,11,01,44,12.50
2017,07,11,01,45,12.50
2017,07,11,01,46,12.50
2017,07,11,01,47,12.50
2017,07,11,01,48,12.50
2017,07,11,01,49,12.50
2017,07,11,01,50,12.50
2017,07,11,01,51,12.50
2017,07,11,01,52,12.50
2017,07,11,01,53,12.50
2017,07,11,01,54,12.50
2017,07,11,01,55,12.50
2017,07,11,01,56,12.50
2017,07,11,01,57,12.50
2017,07,11,01,58,12.40
2017,07,11,01,59,12.40
2017,07,11,02,00,12.40
2017,07,11,02,01,12.40
2017,07,11,02,02,12.40
2017,07,11,02,03,12.40
2017,07,11,02,04,12.40
2017,07,11,02,05,12.40
2017,07,11,02,06,12.40
2017,07,11,02,07,12.40
2017,07,11,02,08,12.40
2017,07,11,02,09,12.40
2017,07,11,02,10,12.40
2017,07,11,02,11,12.40
2017,07,11,02,12,12.40
2017,07,11,02,13,12.40
2017,07,11,02,14,12.40
2017,07,11,02,15,12.40
2017,07,11,02,17,12.40
2017,07,11,02,18,12.40
2017,07,11,02,19,12.40
2017,07,11,02,21,12.40
2017,07,11,02,22,12.40
2017,07,11,02,23,12.40
2017,07,11,02,24,12.40
2017,07,11,02,26,12.40
2017,07,11,02,27,12.40
2017,07,11,02,28,12.30
2017,07,11,02,29,12.30
2017,07,11,02,31,12.30
2017,07,11,02,32,12.30
2017,07,11,02,33,12.30
2017,07,11,02,34,12.30
2017,07,11,02,36,12.30
2017,07,11,02,37,12.30
2017,07,11,02,38,12.30
2017,07,11,02,39,12.30
2017,07,11,02,41,12.30
2017,07,11,02,42,12.30
2017,07,11,02,43,12.30
2017,07,11,02,44,12.30
2017,07,11,02,46,12.30
2017,07,11,02,47,12.30
2017,07,11,02,48,12.30
2017,07,11,02,49,12.30
2017,07,11,02,51,12.30
2017,07,11,02,52,12.30
2017,07,11,02,53,12.30
2017,07,11,02,54,12.30
2017,07,11,02,56,12.30
2017,07,11,02,57,12.30
2017,07,11,02,58,12.30
2017,07,11,02,59,12.30
2017,07,11,03,01,12.30
2017,07,11,03,02,12.30
2017,07,11,03,03,12.30
2017,07,11,03,04,12.30
2017,07,11,03,06,12.30
2017,07,11,03,07,12.30
2017,07,11,03,08,12.30
2017,07,11,03,09,12.30
2017,07,11,03,11,12.30
2017,07,11,03,12,12.30
2017,07,11,03,13,12.30
2017,07,11,03,14,12.30
2017,07,11,03,16,12.30
2017,07,11,03,17,12.30
2017,07,11,03,18,12.30
2017,07,11,03,19,12.30
2017,07,11,03,21,12.30
2017,07,11,03,22,12.30
2017,07,11,03,23,12.30
2017,07,11,03,24,12.30
2017,07,11,03,26,12.30
2017,07,11,03,27,12.30
2017,07,11,03,28,12.30
2017,07,11,03,29,12.30
2017,07,11,03,31,12.30
2017,07,11,03,32,12.30
2017,07,11,03,33,12.30
2017,07,11,03,34,12.30
2017,07,11,03,36,12.30
2017,07,11,03,37,12.30
2017,07,11,03,38,12.30
2017,07,11,03,39,12.20
2017,07,11,03,41,12.20
2017,07,11,03,42,12.20
2017,07,11,03,43,12.20
2017,07,11,03,44,12.20
2017,07,11,03,46,12.20
2017,07,11,03,47,12.20
2017,07,11,03,48,12.20
2017,07,11,03,49,12.20
2017,07,11,03,51,12.20
2017,07,11,03,52,12.20
2017,07,11,03,53,12.20
2017,07,11,03,54,12.10
2017,07,11,03,55,12.10
2017,07,11,03,56,12.10
2017,07,11,03,57,12.10
2017,07,11,03,58,12.10
2017,07,11,03,59,12.10
2017,07,11,04,00,12.10
2017,07,11,04,01,12.10
2017,07,11,04,02,12.10
2017,07,11,04,03,12.10
2017,07,11,04,04,12.10
2017,07,11,04,05,12.10
2017,07,11,04,06,12.10
2017,07,11,04,07,12.10
2017,07,11,04,08,12.10
2017,07,11,04,09,12.10
2017,07,11,04,10,12.10
2017,07,11,04,11,12.10
2017,07,11,04,12,12.10
2017,07,11,04,13,12.10
2017,07,11,04,14,12.10
2017,07,11,04,15,12.10
2017,07,11,04,16,12.10
2017,07,11,04,17,12.00
2017,07,11,04,18,12.00
2017,07,11,04,19,12.00
2017,07,11,04,20,12.00
2017,07,11,04,21,12.00
2017,07,11,04,22,12.00
2017,07,11,04,23,12.00
2017,07,11,04,24,12.00
2017,07,11,04,25,12.00
2017,07,11,04,26,12.00
2017,07,11,04,27,12.00
2017,07,11,04,28,12.00
2017,07,11,04,29,12.00
2017,07,11,04,30,12.00
2017,07,11,04,31,11.90
2017,07,11,04,32,11.90
2017,07,11,04,33,11.90
2017,07,11,04,34,11.90
2017,07,11,04,35,11.90
2017,07,11,04,36,11.90
2017,07,11,04,37,11.90
2017,07,11,04,38,11.90
2017,07,11,04,39,11.90
2017,07,11,04,40,11.90
2017,07,11,04,41,11.90
2017,07,11,04,42,11.90
2017,07,11,04,43,11.90
2017,07,11,04,44,11.90
2017,07,11,04,45,11.90
2017,07,11,04,46,11.90
2017,07,11,04,47,11.90
2017,07,11,04,48,11.90
2017,07,11,04,49,11.80
2017,07,11,04,50,11.80
2017,07,11,04,51,11.80
2017,07,11,04,52,11.80
2017,07,11,04,53,11.80
2017,07,11,04,54,11.80
2017,07,11,04,55,11.80
2017,07,11,04,56,11.80
2017,07,11,04,57,11.80
2017,07,11,04,59,11.80
2017,07,11,05,00,11.80
2017,07,11,05,02,11.80
2017,07,11,05,03,11.80
2017,07,11,05,04,11.80
2017,07,11,05,06,11.80
2017,07,11,05,07,11.80
2017,07,11,05,08,11.80
2017,07,11,05,09,11.80
2017,07,11,05,11,11.80
2017,07,11,05,12,11.80
2017,07,11,05,13,11.80
2017,07,11,05,14,11.80
2017,07,11,05,16,11.80
2017,07,11,05,17,11.80
2017,07,11,05,18,11.80
2017,07,11,05,19,11.70
2017,07,11,05,21,11.70
2017,07,11,05,22,11.70
2017,07,11,05,23,11.70
2017,07,11,05,24,11.70
2017,07,11,05,26,11.70
2017,07,11,05,27,11.70
2017,07,11,05,28,11.70
2017,07,11,05,29,11.70
2017,07,11,05,31,11.70
2017,07,11,05,32,11.70
2017,07,11,05,33,11.60
2017,07,11,05,34,11.60
2017,07,11,05,36,11.60
2017,07,11,05,37,11.60
2017,07,11,05,38,11.60
2017,07,11,05,39,11.60
2017,07,11,05,41,11.60
2017,07,11,05,42,11.60
2017,07,11,05,43,11.60
2017,07,11,05,44,11.60
2017,07,11,05,46,11.60
2017,07,11,05,47,11.60
2017,07,11,05,48,11.60
2017,07,11,05,49,11.60
2017,07,11,05,51,11.60
2017,07,11,05,52,11.60
2017,07,11,05,53,11.60
2017,07,11,05,54,11.60
2017,07,11,05,56,11.60
2017,07,11,05,57,11.60
2017,07,11,05,58,11.60
2017,07,11,05,59,11.60
2017,07,11,06,01,11.60
2017,07,11,06,02,11.60
2017,07,11,06,03,11.60
2017,07,11,06,04,11.60
2017,07,11,06,06,11.70
2017,07,11,06,07,11.70
2017,07,11,06,08,11.70
2017,07,11,06,09,11.70
2017,07,11,06,11,11.70
2017,07,11,06,12,11.80
2017,07,11,06,13,11.80
2017,07,11,06,14,11.80
2017,07,11,06,16,11.80
2017,07,11,06,17,11.80
2017,07,11,06,18,11.80
2017,07,11,06,19,11.80
2017,07,11,06,21,11.80
2017,07,11,06,22,11.80
2017,07,11,06,23,11.80
2017,07,11,06,24,11.80
2017,07,11,06,25,11.80
2017,07,11,06,26,11.80
2017,07,11,06,27,11.80
2017,07,11,06,28,11.80
2017,07,11,06,29,11.80
2017,07,11,06,31,11.90
2017,07,11,06,32,11.90
2017,07,11,06,33,11.90
2017,07,11,06,34,11.90
2017,07,11,06,36,12.00
2017,07,11,06,37,12.00
2017,07,11,06,38,12.00
2017,07,11,06,39,12.10
2017,07,11,06,40,12.10
2017,07,11,06,41,12.10
2017,07,11,06,42,12.10
2017,07,11,06,43,12.20
2017,07,11,06,44,12.20
2017,07,11,06,45,12.20
2017,07,11,06,46,12.20
2017,07,11,06,47,12.30
2017,07,11,06,48,12.30
2017,07,11,06,49,12.30
2017,07,11,06,50,12.30
2017,07,11,06,51,12.30
2017,07,11,06,52,12.30
2017,07,11,06,53,12.30
2017,07,11,06,54,12.30
2017,07,11,06,55,12.30
2017,07,11,06,56,12.30
2017,07,11,06,57,12.30
2017,07,11,06,58,12.40
2017,07,11,06,59,12.40
2017,07,11,07,00,12.40
2017,07,11,07,01,12.40
2017,07,11,07,02,12.50
2017,07,11,07,03,12.50
2017,07,11,07,04,12.50
2017,07,11,07,05,12.50
2017,07,11,07,06,12.50
2017,07,11,07,07,12.50
2017,07,11,07,08,12.60
2017,07,11,07,09,12.60
2017,07,11,07,10,12.60
2017,07,11,07,11,12.60
2017,07,11,07,12,12.70
2017,07,11,07,13,12.70
2017,07,11,07,14,12.70
2017,07,11,07,15,12.70
2017,07,11,07,16,12.70
2017,07,11,07,17,12.80
2017,07,11,07,18,12.80
2017,07,11,07,19,12.80
2017,07,11,07,20,12.80
2017,07,11,07,21,12.80
2017,07,11,07,22,12.80
2017,07,11,07,23,12.80
2017,07,11,07,24,12.80
2017,07,11,07,25,12.80
2017,07,11,07,26,12.80
2017,07,11,07,27,12.80
2017,07,11,07,28,12.80
2017,07,11,07,29,12.80
2017,07,11,07,30,12.80
2017,07,11,07,31,12.80
2017,07,11,07,32,12.80
2017,07,11,07,33,12.80
2017,07,11,07,34,12.80
2017,07,11,07,35,12.80
2017,07,11,07,36,12.80
2017,07,11,07,37,12.80
2017,07,11,07,38,12.80
2017,07,11,07,39,12.90
2017,07,11,07,40,12.90
2017,07,11,07,41,12.90
2017,07,11,07,42,12.90
2017,07,11,07,43,12.90
2017,07,11,07,44,12.90
2017,07,11,07,46,13.00
2017,07,11,07,47,13.00
2017,07,11,07,48,13.00
2017,07,11,07,49,13.00
2017,07,11,07,51,13.10
2017,07,11,07,52,13.10
2017,07,11,07,53,13.10
2017,07,11,07,54,13.10
2017,07,11,07,56,13.20
2017,07,11,07,57,13.20
2017,07,11,07,58,13.20
2017,07,11,07,59,13.30
2017,07,11,08,01,13.30
2017,07,11,08,02,13.30
2017,07,11,08,03,13.40
2017,07,11,08,04,13.40
2017,07,11,08,06,13.40
2017,07,11,08,07,13.40
2017,07,11,08,08,13.40
2017,07,11,08,09,13.40
2017,07,11,08,11,13.40
2017,07,11,08,12,13.40
2017,07,11,08,13,13.50
2017,07,11,08,14,13.50
2017,07,11,08,16,13.50
2017,07,11,08,17,13.60
2017,07,11,08,18,13.60
2017,07,11,08,19,13.60
2017,07,11,08,21,13.70
2017,07,11,08,22,13.70
2017,07,11,08,23,13.70
2017,07,11,08,24,13.70
2017,07,11,08,26,13.90
2017,07,11,08,27,14.10
2017,07,11,08,28,14.20
2017,07,11,08,29,14.30
2017,07,11,08,31,14.60
2017,07,11,08,32,14.70
2017,07,11,08,33,14.80
2017,07,11,08,34,14.90
2017,07,11,08,36,15.10
2017,07,11,08,37,15.20
2017,07,11,08,38,15.30
2017,07,11,08,39,15.30
2017,07,11,08,41,15.40
2017,07,11,08,42,15.50
2017,07,11,08,43,15.60
2017,07,11,08,44,15.70
2017,07,11,08,46,15.80
2017,07,11,08,47,15.90
2017,07,11,08,48,16.10
2017,07,11,08,49,16.10
2017,07,11,08,51,16.20
2017,07,11,08,52,16.30
2017,07,11,08,53,16.40
2017,07,11,08,54,16.40
2017,07,11,08,56,16.40
2017,07,11,08,57,16.60
2017,07,11,08,58,16.60
2017,07,11,08,59,16.60
2017,07,11,09,01,16.70
2017,07,11,09,02,16.70
2017,07,11,09,03,16.70
2017,07,11,09,04,16.70
2017,07,11,09,06,16.70
2017,07,11,09,07,16.80
2017,07,11,09,08,16.80
2017,07,11,09,09,16.80
2017,07,11,09,11,16.90
2017,07,11,09,12,16.90
2017,07,11,09,13,16.90
2017,07,11,09,14,16.90
2017,07,11,09,15,17.00
2017,07,11,09,16,17.00
2017,07,11,09,17,17.10
2017,07,11,09,18,17.10
2017,07,11,09,19,17.10
2017,07,11,09,20,17.10
2017,07,11,09,21,17.20
2017,07,11,09,22,17.20
2017,07,11,09,23,17.20
2017,07,11,09,24,17.20
2017,07,11,09,25,17.20
2017,07,11,09,26,17.20
2017,07,11,09,27,17.20
2017,07,11,09,28,17.20
2017,07,11,09,29,17.20
2017,07,11,09,30,17.20
2017,07,11,09,31,17.20
2017,07,11,09,32,17.20
2017,07,11,09,33,17.20
2017,07,11,09,34,17.30
2017,07,11,09,35,17.30
2017,07,11,09,36,17.30
2017,07,11,09,37,17.30
2017,07,11,09,38,17.30
2017,07,11,09,39,17.30
2017,07,11,09,40,17.30
2017,07,11,09,41,17.40
2017,07,11,09,42,17.40
2017,07,11,09,43,17.50
2017,07,11,09,44,17.60
2017,07,11,09,45,17.70
2017,07,11,09,46,17.70
2017,07,11,09,47,17.80
2017,07,11,09,48,17.80
2017,07,11,09,49,17.90
2017,07,11,09,50,17.90
2017,07,11,09,51,17.90
2017,07,11,09,52,17.90
2017,07,11,09,53,17.90
2017,07,11,09,54,17.90
2017,07,11,09,55,17.90
2017,07,11,09,56,18.10
2017,07,11,09,57,18.10
2017,07,11,09,58,18.10
2017,07,11,09,59,18.10
2017,07,11,10,00,18.20
2017,07,11,10,01,18.10
2017,07,11,10,02,18.10
2017,07,11,10,03,18.10
2017,07,11,10,04,18.10
2017,07,11,10,05,18.10
2017,07,11,10,06,18.20
2017,07,11,10,07,18.20
2017,07,11,10,08,18.20
2017,07,11,10,09,18.20
2017,07,11,10,10,18.20
2017,07,11,10,11,18.30
2017,07,11,10,12,18.30
2017,07,11,10,13,18.40
2017,07,11,10,14,18.40
2017,07,11,10,15,18.40
2017,07,11,10,16,18.50
2017,07,11,10,17,18.50
2017,07,11,10,18,18.50
2017,07,11,10,19,18.60
2017,07,11,10,20,18.60
2017,07,11,10,21,18.60
2017,07,11,10,22,18.70
2017,07,11,10,23,18.70
2017,07,11,10,24,18.70
2017,07,11,10,25,18.70
2017,07,11,10,27,18.80
2017,07,11,10,29,18.80
2017,07,11,10,31,18.70
2017,07,11,10,32,18.60
2017,07,11,10,33,18.50
2017,07,11,10,34,18.40
2017,07,11,10,36,18.30
2017,07,11,10,37,18.20
2017,07,11,10,38,18.20
2017,07,11,10,39,17.90
2017,07,11,10,41,17.90
2017,07,11,10,42,17.80
2017,07,11,10,43,17.70
2017,07,11,10,44,17.60
2017,07,11,10,46,17.60
2017,07,11,10,47,17.60
2017,07,11,10,48,17.60
2017,07,11,10,49,17.60
2017,07,11,10,51,17.70
2017,07,11,10,52,17.90
2017,07,11,10,53,17.90
2017,07,11,10,54,17.90
2017,07,11,10,56,17.90
2017,07,11,10,57,17.90
2017,07,11,10,58,17.90
2017,07,11,10,59,17.90
2017,07,11,11,01,17.90
2017,07,11,11,02,18.10
2017,07,11,11,03,18.20
2017,07,11,11,04,18.20
2017,07,11,11,06,18.30
2017,07,11,11,07,18.40
2017,07,11,11,08,18.50
2017,07,11,11,09,18.60
2017,07,11,11,11,18.70
2017,07,11,11,12,18.70
2017,07,11,11,13,18.70
2017,07,11,11,14,18.80
2017,07,11,11,16,18.90
2017,07,11,11,17,18.90
2017,07,11,11,18,18.90
2017,07,11,11,19,19.10
2017,07,11,11,21,19.10
2017,07,11,11,22,19.20
2017,07,11,11,23,19.20
2017,07,11,11,24,19.30
2017,07,11,11,26,19.30
2017,07,11,11,27,19.20
2017,07,11,11,28,19.20
2017,07,11,11,29,19.20
2017,07,11,11,31,19.20
2017,07,11,11,32,19.30
2017,07,11,11,33,19.30
2017,07,11,11,34,19.40
2017,07,11,11,36,19.50
2017,07,11,11,37,19.60
2017,07,11,11,38,19.60
2017,07,11,11,39,19.60
2017,07,11,11,41,19.70
2017,07,11,11,42,19.80
2017,07,11,11,43,19.80
2017,07,11,11,44,19.70
2017,07,11,11,46,19.80
2017,07,11,11,47,19.80
2017,07,11,11,48,19.80
2017,07,11,11,49,19.80
2017,07,11,11,51,19.80
2017,07,11,11,52,19.80
2017,07,11,11,53,19.80
2017,07,11,11,54,19.90
2017,07,11,11,55,19.90
2017,07,11,11,56,19.90
2017,07,11,11,57,19.90
2017,07,11,11,58,20.10
2017,07,11,11,59,20.10
2017,07,11,12,00,20.10
2017,07,11,12,01,19.90
2017,07,11,12,02,19.90
2017,07,11,12,03,19.90
2017,07,11,12,04,19.80
2017,07,11,12,06,19.80
2017,07,11,12,07,19.80
2017,07,11,12,08,19.80
2017,07,11,12,09,19.80
2017,07,11,12,10,19.90
2017,07,11,12,11,19.90
2017,07,11,12,12,19.90
2017,07,11,12,13,20.20
2017,07,11,12,14,20.20
2017,07,11,12,15,20.30
2017,07,11,12,16,20.40
2017,07,11,12,17,20.40
2017,07,11,12,18,20.50
2017,07,11,12,19,20.60
2017,07,11,12,20,20.60
2017,07,11,12,21,20.60
2017,07,11,12,22,20.50
2017,07,11,12,23,20.40
2017,07,11,12,24,20.40
2017,07,11,12,25,20.30
2017,07,11,12,26,20.30
2017,07,11,12,27,20.30
2017,07,11,12,28,20.20
2017,07,11,12,29,20.20
2017,07,11,12,30,20.10
2017,07,11,12,31,20.10
2017,07,11,12,32,19.90
2017,07,11,12,33,19.90
2017,07,11,12,34,19.90
2017,07,11,12,35,20.10
2017,07,11,12,36,20.10
2017,07,11,12,37,20.20
2017,07,11,12,38,20.20
2017,07,11,12,39,20.30
2017,07,11,12,40,20.30
2017,07,11,12,41,20.20
2017,07,11,12,42,20.20
2017,07,11,12,43,20.30
2017,07,11,12,44,20.20
2017,07,11,12,45,20.20
2017,07,11,12,46,20.20
2017,07,11,12,47,20.30
2017,07,11,12,48,20.30
2017,07,11,12,49,20.40
2017,07,11,12,50,20.50
2017,07,11,12,51,20.60
2017,07,11,12,52,20.60
2017,07,11,12,53,20.70
2017,07,11,12,54,20.80
2017,07,11,12,55,20.90
2017,07,11,12,56,20.90
2017,07,11,12,57,20.90
2017,07,11,12,58,20.90
2017,07,11,12,59,20.90
2017,07,11,13,00,20.90
2017,07,11,13,01,20.90
2017,07,11,13,02,20.80
2017,07,11,13,03,20.80
2017,07,11,13,04,20.80
2017,07,11,13,05,20.80
2017,07,11,13,06,20.80
2017,07,11,13,07,20.90
2017,07,11,13,08,20.90
2017,07,11,13,09,20.90
2017,07,11,13,11,21.00
2017,07,11,13,12,21.10
2017,07,11,13,13,21.10
2017,07,11,13,14,21.20
2017,07,11,13,16,21.00
2017,07,11,13,17,20.90
2017,07,11,13,18,20.70
2017,07,11,13,19,20.50
2017,07,11,13,21,20.20
2017,07,11,13,22,20.10
2017,07,11,13,23,19.90
2017,07,11,13,24,19.90
2017,07,11,13,26,19.90
2017,07,11,13,27,19.80
2017,07,11,13,28,19.80
2017,07,11,13,29,19.70
2017,07,11,13,31,19.60
2017,07,11,13,32,19.40
2017,07,11,13,33,19.40
2017,07,11,13,34,19.40
2017,07,11,13,36,19.40
2017,07,11,13,37,19.50
2017,07,11,13,38,19.50
2017,07,11,13,39,19.60
2017,07,11,13,41,19.70
2017,07,11,13,42,19.90
2017,07,11,13,43,19.90
2017,07,11,13,44,20.10
2017,07,11,13,46,20.20
2017,07,11,13,47,20.30
2017,07,11,13,48,20.40
2017,07,11,13,49,20.50
2017,07,11,13,51,20.70
2017,07,11,13,52,20.80
2017,07,11,13,53,20.80
2017,07,11,13,54,20.90
2017,07,11,13,56,21.10
2017,07,11,13,57,21.20
2017,07,11,13,58,21.30
2017,07,11,13,59,21.30
2017,07,11,14,01,21.60
2017,07,11,14,02,21.60
2017,07,11,14,03,21.60
2017,07,11,14,04,21.70
2017,07,11,14,06,21.70
2017,07,11,14,07,21.80
2017,07,11,14,08,21.80
2017,07,11,14,09,21.80
2017,07,11,14,11,21.70
2017,07,11,14,12,21.60
2017,07,11,14,13,21.60
2017,07,11,14,14,21.60
2017,07,11,14,16,21.60
2017,07,11,14,17,21.60
2017,07,11,14,18,21.60
2017,07,11,14,19,21.60
2017,07,11,14,21,21.60
2017,07,11,14,22,21.60
2017,07,11,14,23,21.60
2017,07,11,14,24,21.60
2017,07,11,14,26,21.60
2017,07,11,14,27,21.60
2017,07,11,14,28,21.60
2017,07,11,14,29,21.60
2017,07,11,14,31,21.60
2017,07,11,14,32,21.70
2017,07,11,14,33,21.70
2017,07,11,14,34,21.70
2017,07,11,14,36,21.80
2017,07,11,14,37,21.90
2017,07,11,14,38,22.00
2017,07,11,14,39,22.10
2017,07,11,14,41,22.20
2017,07,11,14,42,22.20
2017,07,11,14,43,22.30
2017,07,11,14,44,22.30
2017,07,11,14,45,22.40
2017,07,11,14,46,22.40
2017,07,11,14,47,22.40
2017,07,11,14,48,22.40
2017,07,11,14,49,22.40
2017,07,11,14,50,22.40
2017,07,11,14,51,22.30
2017,07,11,14,52,22.30
2017,07,11,14,53,22.30
2017,07,11,14,54,22.30
2017,07,11,14,56,22.20
2017,07,11,14,57,22.10
2017,07,11,14,58,22.00
2017,07,11,14,59,21.90
2017,07,11,15,00,21.80
2017,07,11,15,01,21.80
2017,07,11,15,02,21.70
2017,07,11,15,03,21.70
2017,07,11,15,04,21.60
2017,07,11,15,05,21.60
2017,07,11,15,06,21.60
2017,07,11,15,07,21.60
2017,07,11,15,08,21.40
2017,07,11,15,09,21.40
2017,07,11,15,10,21.40
2017,07,11,15,11,21.40
2017,07,11,15,12,21.40
2017,07,11,15,13,21.40
2017,07,11,15,14,21.40
2017,07,11,15,15,21.60
2017,07,11,15,16,21.60
2017,07,11,15,17,21.60
2017,07,11,15,18,21.60
2017,07,11,15,19,21.60
2017,07,11,15,20,21.60
2017,07,11,15,21,21.60
2017,07,11,15,22,21.60
2017,07,11,15,23,21.60
2017,07,11,15,24,21.60
2017,07,11,15,25,21.60
2017,07,11,15,26,21.40
2017,07,11,15,27,21.40
2017,07,11,15,28,21.40
2017,07,11,15,29,21.40
2017,07,11,15,30,21.40
2017,07,11,15,31,21.40
2017,07,11,15,32,21.40
2017,07,11,15,33,21.30
2017,07,11,15,34,21.30
2017,07,11,15,35,21.30
2017,07,11,15,36,21.30
2017,07,11,15,37,21.30
2017,07,11,15,38,21.30
2017,07,11,15,39,21.30
2017,07,11,15,40,21.30
2017,07,11,15,41,21.30
2017,07,11,15,42,21.30
2017,07,11,15,43,21.30
2017,07,11,15,44,21.30
2017,07,11,15,45,21.30
2017,07,11,15,46,21.40
2017,07,11,15,47,21.40
2017,07,11,15,48,21.40
2017,07,11,15,49,21.30
2017,07,11,15,50,21.30
2017,07,11,15,51,21.30
2017,07,11,15,52,21.30
2017,07,11,15,53,21.30
2017,07,11,15,54,21.20
2017,07,11,15,55,21.20
2017,07,11,15,56,21.10
2017,07,11,15,57,21.00
2017,07,11,15,58,20.90
2017,07,11,15,59,20.90
2017,07,11,16,00,20.80
2017,07,11,16,01,20.80
2017,07,11,16,03,20.80
2017,07,11,16,04,20.70
2017,07,11,16,06,20.60
2017,07,11,16,07,20.60
2017,07,11,16,08,20.50
2017,07,11,16,09,20.50
2017,07,11,16,11,20.40
2017,07,11,16,12,20.40
2017,07,11,16,13,20.40
2017,07,11,16,14,20.30
2017,07,11,16,16,20.30
2017,07,11,16,17,20.30
2017,07,11,16,18,20.20
2017,07,11,16,19,20.20
2017,07,11,16,21,19.90
2017,07,11,16,22,19.80
2017,07,11,16,23,19.70
2017,07,11,16,24,19.60
2017,07,11,16,26,19.30
2017,07,11,16,27,19.20
2017,07,11,16,28,19.10
2017,07,11,16,29,19.10
2017,07,11,16,31,19.10
2017,07,11,16,32,19.10
2017,07,11,16,33,19.10
2017,07,11,16,34,19.10
2017,07,11,16,36,19.10
2017,07,11,16,37,19.10
2017,07,11,16,38,18.90
2017,07,11,16,39,18.90
2017,07,11,16,41,18.90
2017,07,11,16,42,18.90
2017,07,11,16,43,18.90
2017,07,11,16,44,18.90
2017,07,11,16,46,19.10
2017,07,11,16,47,19.10
2017,07,11,16,48,19.10
2017,07,11,16,49,18.90
2017,07,11,16,51,18.80
2017,07,11,16,52,18.80
2017,07,11,16,53,18.70
2017,07,11,16,54,18.70
2017,07,11,16,56,18.70
2017,07,11,16,57,18.70
2017,07,11,16,58,18.80
2017,07,11,16,59,18.80
2017,07,11,17,01,18.80
2017,07,11,17,02,18.70
2017,07,11,17,03,18.80
2017,07,11,17,04,18.80
2017,07,11,17,06,18.80
2017,07,11,17,07,18.80
2017,07,11,17,08,18.80
2017,07,11,17,09,18.80
2017,07,11,17,11,18.90
2017,07,11,17,12,18.90
2017,07,11,17,13,18.90
2017,07,11,17,14,18.90
2017,07,11,17,16,19.10
2017,07,11,17,17,19.10
2017,07,11,17,18,19.10
2017,07,11,17,19,19.10
2017,07,11,17,21,19.20
2017,07,11,17,22,19.30
2017,07,11,17,23,19.30
2017,07,11,17,24,19.40
2017,07,11,17,26,19.50
2017,07,11,17,27,19.50
2017,07,11,17,28,19.60
2017,07,11,17,29,19.70
2017,07,11,17,31,19.80
2017,07,11,17,32,19.90
2017,07,11,17,33,19.90
2017,07,11,17,34,19.90
2017,07,11,17,36,20.10
2017,07,11,17,37,20.20
2017,07,11,17,38,20.20
2017,07,11,17,39,20.20
2017,07,11,17,40,20.20
2017,07,11,17,41,20.20
2017,07,11,17,42,20.30
2017,07,11,17,43,20.30
2017,07,11,17,44,20.40
2017,07,11,17,45,20.40
2017,07,11,17,46,20.40
2017,07,11,17,47,20.50
2017,07,11,17,48,20.50
2017,07,11,17,49,20.50
2017,07,11,17,50,20.50
2017,07,11,17,51,20.50
2017,07,11,17,52,20.60
2017,07,11,17,53,20.60
2017,07,11,17,54,20.50
2017,07,11,17,55,20.60
2017,07,11,17,56,20.60
2017,07,11,17,57,20.60
2017,07,11,17,58,20.60
2017,07,11,17,59,20.60
2017,07,11,18,00,20.60
2017,07,11,18,01,20.60
2017,07,11,18,02,20.70
2017,07,11,18,03,20.70
2017,07,11,18,04,20.70
2017,07,11,18,05,20.80
2017,07,11,18,06,20.80
2017,07,11,18,07,20.80
2017,07,11,18,08,20.80
2017,07,11,18,09,20.80
2017,07,11,18,10,20.80
2017,07,11,18,11,20.90
2017,07,11,18,12,20.90
2017,07,11,18,13,20.90
2017,07,11,18,14,20.90
2017,07,11,18,15,20.90
2017,07,11,18,16,20.90
2017,07,11,18,17,20.80
2017,07,11,18,18,20.80
2017,07,11,18,19,20.70
2017,07,11,18,20,20.70
2017,07,11,18,21,20.60
2017,07,11,18,22,20.60
2017,07,11,18,23,20.60
2017,07,11,18,24,20.60
2017,07,11,18,25,20.60
2017,07,11,18,26,20.60
2017,07,11,18,27,20.60
2017,07,11,18,28,20.60
2017,07,11,18,29,20.60
2017,07,11,18,30,20.60
2017,07,11,18,31,20.60
2017,07,11,18,32,20.60
2017,07,11,18,33,20.60
2017,07,11,18,34,20.70
2017,07,11,18,35,20.70
2017,07,11,18,36,20.80
2017,07,11,18,37,20.80
2017,07,11,18,38,20.90
2017,07,11,18,39,20.90
2017,07,11,18,40,21.00
2017,07,11,18,41,21.10
2017,07,11,18,42,21.10
2017,07,11,18,43,21.20
2017,07,11,18,44,21.20
2017,07,11,18,45,21.30
2017,07,11,18,46,21.30
2017,07,11,18,47,21.30
2017,07,11,18,48,21.30
2017,07,11,18,49,21.30
2017,07,11,18,50,21.30
2017,07,11,18,51,21.30
2017,07,11,18,52,21.40
2017,07,11,18,53,21.40
2017,07,11,18,54,21.40
2017,07,11,18,55,21.40
2017,07,11,18,56,21.60
2017,07,11,18,57,21.60
2017,07,11,18,59,21.60
2017,07,11,19,00,21.60
2017,07,11,19,02,21.60
2017,07,11,19,03,21.70
2017,07,11,19,04,21.70
2017,07,11,19,06,21.70
2017,07,11,19,07,21.70
2017,07,11,19,09,21.70
2017,07,11,19,11,21.60
2017,07,11,19,12,21.60
2017,07,11,19,13,21.60
2017,07,11,19,14,21.60
2017,07,11,19,16,21.40
2017,07,11,19,17,21.30
2017,07,11,19,18,21.30
2017,07,11,19,19,21.20
2017,07,11,19,21,21.10
2017,07,11,19,22,21.10
2017,07,11,19,23,21.00
2017,07,11,19,24,21.00
2017,07,11,19,26,21.00
2017,07,11,19,27,21.00
2017,07,11,19,28,21.00
2017,07,11,19,29,21.00
2017,07,11,19,31,21.00
2017,07,11,19,32,21.00
2017,07,11,19,33,21.00
2017,07,11,19,34,21.00
2017,07,11,19,36,21.00
2017,07,11,19,37,20.90
2017,07,11,19,38,20.80
2017,07,11,19,39,20.70
2017,07,11,19,41,20.50
2017,07,11,19,42,20.40